Location: Arezzo
(43.4170°N, 11.8830°E)
Time: 18:38:30
(UTC+01:00)

ISS - Visible Passes

Search period start: 14 December 2025 00:00
Search period end: 24 December 2025 00:00
Orbit: 416 x 420 km, 51.6° (Epoch: 13 December)

Date Brightness Start Highest point End Pass type
(mag) Time Alt. Az. Time Alt. Az. Time Alt. Az.
14 Dec -3.0 06:25:12 10° SW 06:28:30 55° SE 06:31:49 10° ENE visible
15 Dec -2.1 05:38:48 19° S 05:40:35 32° SE 05:43:39 10° ENE visible
16 Dec -0.9 04:53:43 17° ESE 04:53:43 17° ESE 04:55:14 10° E visible
16 Dec -3.7 06:26:43 16° WSW 06:29:13 59° NNW 06:32:33 10° NE visible
17 Dec -3.8 05:41:17 82° ENE 05:41:17 82° ENE 05:44:32 10° ENE visible
18 Dec -0.8 04:55:38 16° ENE 04:55:38 16° ENE 04:56:25 10° ENE visible
18 Dec -2.8 06:28:34 22° WNW 06:30:02 31° NNW 06:33:05 10° NE visible
19 Dec -2.6 05:42:44 33° NNE 05:42:44 33° NNE 05:45:03 10° NE visible
20 Dec -0.6 04:56:45 11° NE 04:56:45 11° NE 04:56:59 10° NE visible
20 Dec -2.2 06:29:41 18° NW 06:30:53 22° N 06:33:35 10° NE visible
21 Dec -1.9 05:43:36 21° NNE 05:43:36 21° NNE 05:45:26 10° NE visible
22 Dec -1.9 06:30:21 16° NNW 06:31:43 20° N 06:34:17 10° NE visible
23 Dec -1.7 05:44:07 19° NNE 05:44:07 19° NNE 05:45:55 10° NE visible
